When you browse on this site, cookies collect data to enhance your experience and personalize the content and advertising you see.
Visit our Privacy Policy to learn more. By continuing to use the site, you agree to this use of cookies and data.
  • In Austria
  • List of Countries
  • For 7 days
  • Water Temperature
  • Satellite Maps
  • Weather Map
  • News
  • Weather Widgets
  • user-avatar
    Login

    Hourly Weather Chinsali

    Today, 18 January, Friday

    Time Temperature Precipitation Wind Pressure Humidity
    00:00 +19°C° 0.3 mm 1 mps 646 mmHg 98%
    01:00 +18°C° 0.3 mm 1 mps 646 mmHg 98%
    02:00 +18°C° 0 mm 1 mps 646 mmHg 98%
    03:00 +18°C° 0 mm 1 mps 645 mmHg 98%
    04:00 +18°C° 0 mm 1 mps 645 mmHg 98%
    05:00 +18°C° 0 mm 1 mps 645 mmHg 98%
    06:00 +18°C° 0.1 mm 2 mps 646 mmHg 96%
    07:00 +18°C° 0.1 mm 2 mps 646 mmHg 94%
    08:00 +19°C° 0 mm 2 mps 647 mmHg 90%
    09:00 +20°C° 0 mm 2 mps 647 mmHg 87%
    10:00 +21°C° 0 mm 2 mps 647 mmHg 83%
    11:00 +23°C° 0 mm 2 mps 647 mmHg 80%
    12:00 +24°C° 0.2 mm 3 mps 647 mmHg 76%
    13:00 +25°C° 0.2 mm 3 mps 646 mmHg 73%
    14:00 +26°C° 0.2 mm 3 mps 646 mmHg 69%
    15:00 +26°C° 0.7 mm 3 mps 645 mmHg 73%
    16:00 +25°C° 0.7 mm 2 mps 645 mmHg 77%
    17:00 +25°C° 0.7 mm 2 mps 645 mmHg 81%
    18:00 +23°C° 1.5 mm 2 mps 645 mmHg 86%
    19:00 +22°C° 1.5 mm 1 mps 645 mmHg 91%
    20:00 +20°C° 1.5 mm 1 mps 645 mmHg 96%
    21:00 +20°C° 1.1 mm 1 mps 645 mmHg 96%
    22:00 +20°C° 1.1 mm 1 mps 646 mmHg 95%
    23:00 +20°C° 1.1 mm 1 mps 646 mmHg 95%

    Tomorrow, 19 January, Saturday

    Time Temperature Precipitation Wind Pressure Humidity
    00:00 +20°C° 0.2 mm 1 mps 646 mmHg 95%
    01:00 +20°C° 0.2 mm 1 mps 645 mmHg 95%
    02:00 +19°C° 0.2 mm 1 mps 645 mmHg 96%
    03:00 +19°C° 0 mm 1 mps 645 mmHg 96%
    04:00 +19°C° 0 mm 1 mps 645 mmHg 96%
    05:00 +19°C° 0 mm 1 mps 645 mmHg 96%
    06:00 +19°C° 0 mm 1 mps 646 mmHg 95%
    07:00 +20°C° 0 mm 1 mps 646 mmHg 93%
    08:00 +20°C° 0 mm 2 mps 647 mmHg 91%
    09:00 +23°C° 0.3 mm 2 mps 647 mmHg 85%
    10:00 +24°C° 0.3 mm 3 mps 647 mmHg 79%
    11:00 +25°C° 0.3 mm 4 mps 647 mmHg 73%
    12:00 +25°C° 0.7 mm 4 mps 647 mmHg 74%
    13:00 +25°C° 0.7 mm 4 mps 646 mmHg 75%
    14:00 +25°C° 0.7 mm 4 mps 646 mmHg 75%
    15:00 +25°C° 0.1 mm 3 mps 645 mmHg 76%
    16:00 +25°C° 0.1 mm 3 mps 645 mmHg 77%
    17:00 +24°C° 0.1 mm 3 mps 645 mmHg 79%
    18:00 +23°C° 0.5 mm 2 mps 645 mmHg 84%
    19:00 +21°C° 0.5 mm 2 mps 646 mmHg 90%
    20:00 +19°C° 0.5 mm 2 mps 646 mmHg 95%
    21:00 +19°C° 0.1 mm 2 mps 646 mmHg 95%
    22:00 +19°C° 0.1 mm 2 mps 647 mmHg 94%
    23:00 +19°C° 0.1 mm 2 mps 647 mmHg 93%

    Day after tomorrow, 20 January, Sunday

    Time Temperature Precipitation Wind Pressure Humidity
    00:00 +19°C° 0.1 mm 2 mps 646 mmHg 94%
    01:00 +18°C° 0.1 mm 2 mps 646 mmHg 95%
    02:00 +18°C° 0.1 mm 2 mps 645 mmHg 96%
    03:00 +18°C° 0.2 mm 2 mps 645 mmHg 96%
    04:00 +18°C° 0.2 mm 2 mps 646 mmHg 96%
    05:00 +18°C° 0.2 mm 2 mps 646 mmHg 97%
    06:00 +18°C° 0.5 mm 2 mps 646 mmHg 96%
    07:00 +18°C° 0.5 mm 2 mps 647 mmHg 96%
    08:00 +19°C° 0.5 mm 2 mps 647 mmHg 96%
    09:00 +18°C° 1.8 mm 2 mps 647 mmHg 96%
    10:00 +18°C° 1.8 mm 2 mps 647 mmHg 96%
    11:00 +18°C° 1.8 mm 2 mps 647 mmHg 97%
    12:00 +19°C° 0.6 mm 3 mps 647 mmHg 95%
    13:00 +19°C° 0.6 mm 3 mps 646 mmHg 94%
    14:00 +19°C° 0.6 mm 3 mps 646 mmHg 92%
    15:00 +20°C° 0 mm 3 mps 646 mmHg 88%
    16:00 +20°C° 0 mm 3 mps 646 mmHg 84%
    17:00 +21°C° 0 mm 3 mps 646 mmHg 79%
    18:00 +20°C° 0.1 mm 3 mps 646 mmHg 84%
    19:00 +19°C° 0.1 mm 2 mps 646 mmHg 89%
    20:00 +18°C° 0.1 mm 2 mps 647 mmHg 94%
    21:00 +17°C° 0.2 mm 2 mps 647 mmHg 95%
    22:00 +17°C° 0.2 mm 2 mps 647 mmHg 96%
    23:00 +17°C° 0.2 mm 2 mps 647 mmHg 97%

    21 January, Monday

    Time Temperature Precipitation Wind Pressure Humidity
    00:00 +17°C° 0 mm 2 mps 647 mmHg 97%
    01:00 +17°C° 0 mm 2 mps 646 mmHg 98%
    02:00 +16°C° 0 mm 2 mps 646 mmHg 98%
    03:00 +16°C° 0.2 mm 2 mps 646 mmHg 98%
    04:00 +17°C° 0.2 mm 2 mps 646 mmHg 98%
    05:00 +17°C° 0.2 mm 2 mps 646 mmHg 98%
    06:00 +17°C° 0.1 mm 2 mps 647 mmHg 97%
    07:00 +18°C° 0.1 mm 2 mps 647 mmHg 96%
    08:00 +18°C° 0.1 mm 2 mps 648 mmHg 95%
    09:00 +19°C° 0.1 mm 2 mps 648 mmHg 93%
    10:00 +20°C° 0.1 mm 2 mps 648 mmHg 90%
    11:00 +20°C° 0.1 mm 2 mps 648 mmHg 88%
    12:00 +21°C° 0.7 mm 2 mps 647 mmHg 87%
    13:00 +23°C° 0.7 mm 2 mps 647 mmHg 86%
    14:00 +23°C° 0.7 mm 2 mps 646 mmHg 85%
    15:00 +23°C° 0.9 mm 2 mps 646 mmHg 87%
    16:00 +21°C° 0.9 mm 2 mps 646 mmHg 89%
    17:00 +22°C° 0.9 mm 1 mps 645 mmHg 91%
    18:00 +21°C° 0.7 mm 1 mps 646 mmHg 92%
    19:00 +20°C° 0.7 mm 1 mps 646 mmHg 94%
    20:00 +18°C° 0.7 mm 0 mps 646 mmHg 96%
    21:00 +19°C° 0.3 mm 1 mps 646 mmHg 96%
    22:00 +19°C° 0.3 mm 1 mps 647 mmHg 97%
    23:00 +19°C° 0.3 mm 1 mps 647 mmHg 97%

    22 January, Tuesday

    Time Temperature Precipitation Wind Pressure Humidity
    00:00 +19°C° 0.1 mm 1 mps 646 mmHg 98%
    01:00 +19°C° 0.1 mm 1 mps 646 mmHg 98%
    02:00 +19°C° 0.1 mm 1 mps 645 mmHg 98%
    03:00 +19°C° 0.2 mm 1 mps 645 mmHg 98%
    04:00 +19°C° 0.2 mm 1 mps 646 mmHg 98%
    05:00 +18°C° 0.2 mm 1 mps 646 mmHg 98%
    06:00 +18°C° 0 mm 2 mps 646 mmHg 95%
    07:00 +19°C° 0 mm 2 mps 647 mmHg 92%
    08:00 +20°C° 0 mm 2 mps 647 mmHg 89%
    09:00 +21°C° 0.6 mm 3 mps 647 mmHg 86%
    10:00 +22°C° 0.6 mm 3 mps 647 mmHg 84%
    11:00 +23°C° 0.6 mm 4 mps 647 mmHg 81%
    12:00 +23°C° 0.7 mm 4 mps 646 mmHg 80%
    13:00 +23°C° 0.7 mm 4 mps 646 mmHg 78%
    14:00 +23°C° 0.7 mm 5 mps 645 mmHg 77%
    15:00 +23°C° 0.1 mm 4 mps 645 mmHg 76%
    16:00 +23°C° 0.1 mm 4 mps 645 mmHg 75%
    17:00 +24°C° 0.1 mm 3 mps 645 mmHg 74%
    18:00 +22°C° 0 mm 3 mps 645 mmHg 81%
    19:00 +20°C° 0 mm 2 mps 645 mmHg 88%
    20:00 +20°C° 0 mm 1 mps 645 mmHg 95%
    21:00 +20°C° 0.1 mm 1 mps 645 mmHg 96%
    22:00 +20°C° 0.1 mm 1 mps 646 mmHg 96%
    23:00 +20°C° 0.1 mm 1 mps 646 mmHg 96%

    23 January, Wednesday

    Time Temperature Precipitation Wind Pressure Humidity
    00:00 +20°C° 0.6 mm 1 mps 645 mmHg 96%
    01:00 +20°C° 0.6 mm 1 mps 645 mmHg 96%
    02:00 +18°C° 0.6 mm 2 mps 645 mmHg 96%
    03:00 +18°C° 0.2 mm 2 mps 645 mmHg 96%
    04:00 +18°C° 0.2 mm 2 mps 645 mmHg 96%
    05:00 +18°C° 0.2 mm 2 mps 645 mmHg 96%
    06:00 +19°C° 0 mm 2 mps 646 mmHg 94%
    07:00 +20°C° 0 mm 2 mps 646 mmHg 92%
    08:00 +20°C° 0 mm 3 mps 647 mmHg 90%
    09:00 +22°C° 0.1 mm 3 mps 647 mmHg 82%
    10:00 +23°C° 0.1 mm 4 mps 647 mmHg 74%
    11:00 +26°C° 0.1 mm 5 mps 647 mmHg 66%
    12:00 +26°C° 0.3 mm 5 mps 646 mmHg 65%
    13:00 +27°C° 0.3 mm 4 mps 646 mmHg 64%
    14:00 +27°C° 0.3 mm 4 mps 645 mmHg 63%
    15:00 +26°C° 0.3 mm 4 mps 645 mmHg 67%
    16:00 +26°C° 0.3 mm 3 mps 645 mmHg 72%
    17:00 +25°C° 0.3 mm 3 mps 644 mmHg 77%
    18:00 +23°C° 0.1 mm 2 mps 644 mmHg 82%
    19:00 +22°C° 0.1 mm 1 mps 645 mmHg 87%
    20:00 +20°C° 0.1 mm 1 mps 645 mmHg 93%
    21:00 +20°C° 0 mm 1 mps 645 mmHg 92%
    22:00 +20°C° 0 mm 1 mps 645 mmHg 91%
    23:00 +20°C° 0 mm 1 mps 646 mmHg 90%
    Show more